N5ZPR Weather Reports


Display with metric or nautical units.
time (UTC)temp
F
wind
direction
speed
MPH
gust
MPH
rain 1hr
in
rain 24hr
in
rain mn
in
humidity
%
barometer
mb
20260904075004 78 0 0.0 0.0 0.00 0.00 0.00 85 1010.5
20260904073003 78 0 0.0 0.0 0.00 0.00 0.00 84 1011.1
20260904072003 78 0 0.0 0.0 0.00 0.00 0.00 84 1011.1
20260904071003 78 0 0.0 0.0 0.00 0.00 0.00 84 1011.1
20260904070003 78 0 0.0 0.0 0.00 0.00 0.00 84 1011.1
20260904065003 78 0 0.0 0.0 0.00 0.00 0.00 83 1011.0
20260904064003 79 0 0.0 0.0 0.00 0.00 0.00 83 1011.0
20260904063003 79 0 0.0 0.0 0.00 0.00 0.00 83 1011.0
20260904062004 79 0 0.0 0.0 0.00 0.00 0.00 82 1011.0
20260904060003 79 0 0.0 0.0 0.00 0.00 0.00 81 1010.9
20260904055004 79 0 0.0 0.0 0.00 0.00 0.00 81 1010.9
20260904054003 79 0 0.0 0.0 0.00 0.00 0.00 81 1010.9
20260904053003 80 0 0.0 0.0 0.00 0.00 0.00 80 1010.9
20260904052003 80 0 0.0 0.0 0.00 0.00 0.00 79 1010.9
20260904051004 80 0 0.0 0.0 0.00 0.00 0.00 78 1010.9
20260904050004 80 0 0.0 0.0 0.00 0.00 0.00 77 1010.9
20260904045003 80 0 0.0 0.0 0.00 0.00 0.00 76 1010.9
20260904044003 80 0 0.0 0.0 0.00 0.00 0.00 75 1010.9
20260904043004 80 0 0.0 0.0 0.00 0.00 0.00 73 1011.0
20260904041004 80 0 0.0 0.0 0.00 0.00 0.00 71 1011.0
20260904040003 81 0 0.0 0.0 0.00 0.00 0.00 71 1011.0
20260904035004 81 0 0.0 0.0 0.00 0.00 0.00 71 1011.0
20260904034003 81 0 0.0 0.0 0.00 0.00 0.00 71 1010.9
20260904033004 81 0 0.0 0.0 0.00 0.00 0.00 71 1010.9
20260904032003 82 0 0.0 0.0 0.00 0.00 0.00 71 1010.9
20260904030003 82 0 0.0 0.0 0.00 0.00 0.00 71 1010.7
20260904025004 82 0 0.0 0.0 0.00 0.00 0.00 72 1009.8
20260904024004 83 0 0.0 0.0 0.00 0.00 0.00 72 1009.8
20260904023004 83 0 0.0 0.0 0.00 0.00 0.00 71 1009.8
20260904022003 83 0 0.0 0.0 0.00 0.00 0.00 72 1009.8
20260904020003 84 0 0.0 0.0 0.00 0.00 0.00 72 1009.8
20260904015003 84 0 0.0 0.0 0.00 0.00 0.00 72 1009.0
20260904013003 85 0 0.0 0.0 0.00 0.00 0.00 65 1009.0
20260904012004 86 0 0.0 0.0 0.00 0.00 0.00 62 1009.0
20260904011004 86 0 0.0 0.0 0.00 0.00 0.00 60 1009.0
20260904005003 87 146 0.0 0.0 0.00 0.00 0.00 58 1009.0
20260904004003 88 143 0.0 0.0 0.00 0.00 0.00 59 1009.0
20260904003003 87 128 0.0 0.0 0.00 0.00 0.00 60 1008.9
20260904002004 88 135 0.0 0.0 0.00 0.00 0.00 59 1008.9
20260903233003 90 118 0.0 0.0 0.00 0.00 0.00 58 1008.5
20260903232003 90 157 0.0 0.0 0.00 0.00 0.00 59 1008.5
20260903231004 90 130 0.0 0.0 0.00 0.00 0.00 59 1008.5
20260903230004 91 132 0.0 0.0 0.00 0.00 0.00 59 1008.5
20260903225003 91 101 0.0 0.0 0.00 0.00 0.00 58 1008.5
20260903224004 92 104 0.0 0.0 0.00 0.00 0.00 57 1008.6
20260903222004 93 149 0.0 0.0 0.00 0.00 0.00 56 1008.6
20260903221003 93 102 0.0 0.0 0.00 0.00 0.00 56 1008.6
20260903215004 93 137 0.0 0.0 0.00 0.00 0.00 57 1009.4
20260903214003 92 141 0.0 0.0 0.00 0.00 0.00 58 1009.4
20260903213003 92 154 0.0 0.0 0.00 0.00 0.00 58 1009.4
20260903212003 91 151 0.0 0.0 0.00 0.00 0.00 60 1009.4
20260903211003 90 196 0.0 0.0 0.00 0.00 0.00 61 1009.4
20260903210004 91 135 0.0 0.0 0.00 0.00 0.00 60 1009.4
20260903205004 92 139 0.0 0.0 0.00 0.00 0.00 58 1009.4
20260903204003 92 167 0.0 0.0 0.00 0.00 0.00 59 1009.4
20260903203004 92 115 0.0 0.0 0.00 0.00 0.00 60 1009.4
20260903202004 91 186 0.0 0.0 0.00 0.00 0.00 61 1009.5
20260903194003 90 203 0.0 0.0 0.00 0.00 0.00 62 1010.2
20260903193003 90 176 0.0 0.0 0.00 0.00 0.00 63 1010.2
20260903192003 90 161 0.0 0.0 0.00 0.00 0.00 64 1010.2
20260903191003 89 134 0.0 0.0 0.00 0.00 0.00 66 1010.4
20260903185004 88 186 0.0 0.0 0.00 0.00 0.00 68 1010.7
20260903184003 87 128 0.0 0.0 0.00 0.00 0.00 69 1010.9
20260903183003 87 196 0.0 0.0 0.00 0.00 0.00 70 1010.9
20260903182004 87 155 0.0 0.0 0.00 0.00 0.00 70 1010.9
20260903181003 86 159 0.0 0.0 0.00 0.00 0.00 71 1011.1
20260903180004 87 126 0.0 0.0 0.00 0.00 0.00 70 1011.1
20260903175003 87 147 0.0 0.0 0.00 0.00 0.00 69 1011.2
20260903174004 87 162 0.0 0.0 0.00 0.00 0.00 70 1011.2
20260903173003 88 144 0.0 0.0 0.00 0.00 0.00 69 1011.5
20260903172003 87 150 0.0 0.0 0.00 0.00 0.00 71 1011.5
20260903171003 87 157 0.0 0.0 0.00 0.00 0.00 70 1011.5
20260903170004 86 168 0.0 0.0 0.00 0.00 0.00 72 1011.4
20260903165004 87 123 0.0 0.0 0.00 0.00 0.00 70 1011.6
20260903164003 87 150 0.0 0.0 0.00 0.00 0.00 70 1011.6
20260903163003 86 147 0.0 0.0 0.00 0.00 0.00 71 1011.6
20260903162003 86 153 0.0 0.0 0.00 0.00 0.00 72 1011.6
20260903161004 86 143 1.0 9.0 0.00 0.00 0.00 72 1011.6
20260903160004 85 170 3.0 7.0 0.00 0.00 0.00 75 1011.4
20260903155004 84 0 3.0 9.0 0.00 0.00 0.00 76 1011.4
20260903154004 84 0 1.0 8.0 0.00 0.00 0.00 76 1011.5
20260903153005 83 0 2.0 7.0 0.00 0.00 0.00 78 1011.5
20260903152003 82 0 1.0 7.0 0.00 0.00 0.00 78 1011.6
20260903151003 82 0 3.0 7.0 0.00 0.00 0.00 78 1011.6
20260903150004 82 0 2.0 6.0 0.00 0.00 0.00 80 1011.6
20260903145004 81 0 3.0 7.0 0.00 0.00 0.00 80 1011.6
20260903144003 81 0 2.0 5.0 0.00 0.00 0.00 80 1011.4
20260903143004 81 0 2.0 7.0 0.00 0.00 0.00 79 1011.5
20260903142004 81 0 1.0 7.0 0.00 0.00 0.00 80 1011.3
20260903141004 80 0 3.0 7.0 0.00 0.00 0.00 81 1011.3
20260903140003 79 0 3.0 7.0 0.00 0.00 0.00 82 1011.3
20260903134004 79 0 2.0 5.0 0.00 0.00 0.00 82 1011.3
20260903133003 78 0 3.0 5.0 0.00 0.00 0.00 84 1011.1
20260903132004 78 0 0.0 5.0 0.00 0.00 0.00 84 1011.1
20260903131003 78 0 2.0 3.0 0.00 0.00 0.00 84 1011.1
20260903130004 78 0 0.0 3.0 0.00 0.00 0.00 84 1011.1
20260903125003 78 0 1.0 3.0 0.00 0.00 0.00 85 1011.1
20260903124003 77 0 1.0 3.0 0.00 0.00 0.00 86 1010.9
20260903123004 76 0 0.0 2.0 0.00 0.00 0.00 85 1010.9
20260903122004 77 0 0.0 0.0 0.00 0.00 0.00 85 1010.9
20260903115003 77 0 0.0 3.0 0.00 0.00 0.00 82 1010.9
20260903114004 78 0 0.0 5.0 0.00 0.00 0.00 81 1010.7
20260903113004 77 0 0.0 5.0 0.00 0.00 0.00 83 1010.7
20260903110003 78 0 1.0 3.0 0.00 0.00 0.00 81 1010.6
20260903105003 78 0 0.0 1.0 0.00 0.00 0.00 81 1010.6
20260903104004 78 0 0.0 1.0 0.00 0.00 0.00 79 1010.5
20260903103003 78 0 1.0 3.0 0.00 0.00 0.00 80 1010.5
20260903102004 78 0 0.0 3.0 0.00 0.00 0.00 80 1010.5
20260903100004 77 0 0.0 2.0 0.00 0.00 0.00 83 1010.5
20260903095004 77 0 0.0 2.0 0.00 0.00 0.00 82 1010.5
20260903094003 77 0 0.0 2.0 0.00 0.00 0.00 82 1010.5
20260903093004 77 0 0.0 2.0 0.00 0.00 0.00 82 1010.5
20260903092003 76 0 0.0 1.0 0.00 0.00 0.00 83 1010.5
20260903091004 76 0 0.0 1.0 0.00 0.00 0.00 82 1010.5
20260903090003 76 0 0.0 1.0 0.00 0.00 0.00 82 1010.5
20260903082004 77 0 0.0 2.0 0.00 0.00 0.00 80 1010.7
20260903081004 77 0 0.0 1.0 0.00 0.00 0.00 79 1010.7
20260903080004 78 0 0.0 0.0 0.00 0.00 0.00 79 1010.7